Regional Weather Roundup
Issued by NWS

Home | Current Version | Previous Version | Graphics & Text | Print | Product List | Glossary On
Versions: 1 2 3 4 5 6 7 8 9 10 11 12 13 14 15 16 17 18 19 20 21 22 23 24 25 26 27 28 29 30 31 32 33 34 35 36 37 38 39 40 41 42 43 44 45 46 47 48 49 50
000
ASUS43 KDMX 171606
RWRIA

WEATHER ROUNDUP FOR IOWA
NATIONAL WEATHER SERVICE DES MOINES IA
1000 AM CST TUE JAN 17 2017

NOTE: "FAIR" INDICATES FEW OR NO CLOUDS BELOW 12,000 FEET WITH NO
SIGNIFICANT WEATHER AND/OR OBSTRUCTIONS TO VISIBILITY.

* - THESE STATIONS ARE NOT NWS STATIONS...THUS NOT UNDER NWS
QUALITY CONTROL.  THEY ALSO DO NOT REPORT WEATHER SUCH
AS PRECIPITATION OR FOG.

IAZ001>003-012>014-020>022-031>034-043>046-171700-
   NORTHWEST IOWA

CITY           SKY/WX    TMP DP  RH WIND       PRES   REMARKS
CARROLL *      CLOUDY    32  32 100 W12       30.03R FOG     WCI  23
CHEROKEE *     CLOUDY    27  27 100 W3        30.04R FOG
DENISON *      CLOUDY    27  27 100 W8        30.04R FOG     WCI  18
LE MARS *      CLOUDY    19  16  86 W7        30.07S WCI  10
ORANGE CITY *  CLOUDY    19  19 100 W6        30.03S WCI  11
SHELDON *      FOG       21  21 100 W9        30.01S VSB 1/4 WCI  11
SIOUX CITY     CLOUDY    21  16  81 W13       30.09R WCI   9
SPENCER        CLOUDY    30  29  96 NW8       30.01R FOG     WCI  22
STORM LAKE *   PTSUNNY   28  28 100 NW13      30.02R FOG     WCI  18
$$

IAZ055>058-069>071-079>083-090>094-171700-
   SOUTHWEST IOWA

CITY           SKY/WX    TMP DP  RH WIND       PRES   REMARKS
ATLANTIC *     CLOUDY    30  30 100 W5G13     30.06R FOG     WCI  25
AUDUBON *      CLOUDY    30  27  86 CALM      30.05R FOG
CLARINDA *     PTSUNNY   32  32 100 NW12      30.09R FOG     WCI  23
COUNCIL BLFS * CLOUDY    27  27 100 NW8       30.08R FOG     WCI  18
CRESTON *      CLOUDY    32  32 100 W14       30.04R WCI  22
HARLAN  *      CLOUDY    28  28 100 W13       30.10R FOG     WCI  18
LAMONI         CLOUDY    34  32  92 W13       30.03R FOG     WCI  25
RED OAK *      CLOUDY    30  30 100 W8        30.09R FOG     WCI  23
SHENANDOAH *   CLOUDY    30  28  93 W10       30.10R WCI  21
$$

IAZ047>049-059>061-072>074-084-171700-
   CENTRAL IOWA

CITY           SKY/WX    TMP DP  RH WIND       PRES   REMARKS
AMES           CLOUDY    33  33 100 NW12      30.00R FOG     WCI  24
ANKENY *       CLOUDY    34  32  93 W12       30.02R FOG     WCI  25
BOONE *        FOG       32  32 100 W13       29.99R VSB 1/2 WCI  22
CHARITON *     CLOUDY    34  34 100 W9        30.01R FOG     WCI  26
DES MOINES     DRIZZLE   35  33  92 NW10      30.02R FOG     WCI  27
GRINNELL*      FOG       33  32  99 W12       29.98R VSB 1   WCI  24
KNOXVILLE *    CLOUDY    34  34 100 W12       29.99R FOG     WCI  25
MARSHALLTOWN   FOG       32  32 100 W14       29.96R VSB 1   WCI  22
NEWTON *       FOG       34  32  93 W9        29.98R VSB 3/4 WCI  26
PELLA *        FOG       34  33  98 W8        30.00R VSB 3/4 WCI  27
PERRY *        CLOUDY    33  33 100 W14       30.02R FOG     WCI  24
$$

IAZ004>006-015-016-023>025-035-036-171700-
   NORTH CENTRAL IOWA

CITY           SKY/WX    TMP DP  RH WIND       PRES   REMARKS
ALGONA *       FOG       30  30 100 NW10      30.00R VSB 1/4 WCI  21
CLARION *      FOG       32  32 100 NW14      29.99R VSB 1/2 WCI  22
ESTHERVILLE    FOG       27  27 100 NW12      29.99R VSB 3/4 WCI  17
FORT DODGE *   CLOUDY    30  28  93 CALM      30.02R
MASON CITY     FOG       31  30  96 NW14      29.97R VSB 1/4 WCI  21
FOREST CITY *  FOG       32  32 100 NW12      29.97R VSB<1/4 WCI  23
WEBSTER CITY * FOG       32  32 100 NW15      29.98R VSB 3/4 WCI  22
IOWA FALLS *   CLOUDY    32  32  99 NW8       29.97R FOG     WCI  25
$$

IAZ007>011-017>019-026>030-037>042-050>054-066-171700-
   NORTHEAST IOWA

CITY           SKY/WX    TMP DP  RH WIND       PRES   REMARKS
CEDAR RAPIDS   CLOUDY    33  33 100 W12       29.93R FOG     WCI  24
CHARLES CITY * CLOUDY    32  32 100 MISG      29.93R FOG
CLINTON *      CLOUDY    34  34 100 W14       29.92S FOG     WCI  25
DECORAH *      FOG       32  32 100 NW7       29.89R VSB 3/4 WCI  26
DUBUQUE        FOG       33  33 100 W6        29.90R VSB 3/4 WCI  28
MONTICELLO *   FOG       34  34 100 NW9       29.91S VSB 1   WCI  26
OELWEIN *      CLOUDY    34  34 100 W9        29.92R FOG     WCI  26
WATERLOO       CLOUDY    33  31  92 W9        29.94R FOG     WCI  25
$$

IAZ064-065-067-068-078-171700-
   EAST CENTRAL IOWA

CITY           SKY/WX    TMP DP  RH WIND       PRES   REMARKS
DAVENPORT      CLOUDY    34  34 100 W14       29.93S FOG     WCI  25
IOWA CITY      CLOUDY    36  34  92 W10       29.96S WCI  28
MUSCATINE *    CLOUDY    37  34  87 W15       29.96S WCI  28
QUAD CITIES    CLOUDY    36  34  92 W12       29.93R FOG     WCI  28
$$

IAZ062-063-075>077-085>089-095>099-171700-
   SOUTHEAST IOWA

CITY           SKY/WX    TMP DP  RH WIND       PRES   REMARKS
BURLINGTON     CLOUDY    35  35 100 W8        29.97R FOG     WCI  29
FAIRFIELD *    CLOUDY    36  34  93 W15       29.98R FOG     WCI  26
FORT MADISON * CLOUDY    36  36 100 W9        29.99R FOG     WCI  29
KEOKUK *       CLOUDY    36  36 100 W12       29.98S FOG     WCI  27
OSKALOOSA *    CLOUDY    33  33  99 W15       29.99R FOG     WCI  23
OTTUMWA        CLOUDY    35  34  96 W10       29.99R FOG     WCI  27
WASHINGTON *   CLOUDY    36  36 100 W10       29.97S FOG     WCI  28
$$

ABBREVIATIONS USED IN REMARKS
   TC - TEMPERATURES IN CELSIUS
  WCI - WIND CHILL INDEX
   HX - HEAT INDEX
  VSB - VISIBILITY
$$




USA.gov is the U.S. government's official web portal to all federal, state and local government web resources and services.